Terug naar catalogus

FREGAT DEB

LostHEO
NORAD 46020·DEBRIS·🇷🇺 Russia

Gelanceerd Jul 18, 2011 vanaf Baikonur Cosmodrome

Loading…

Volgende Passages (komende 24 uur)

TLE

VerouderdSource: Space-Track

Epoch: Aug 30, 2020, 10:26 UTC

1 46020U 11037HX  20243.43515297  .00092441  00000-0  65467-1 0  9990
2 46020  51.0882 254.7374 2848025 133.9559 253.4612  9.17443954  2948

Volg FREGAT DEB in realtime met AllMySat

Download on the App Store